Weather History for Willimantic, CT

Change the Weather History Date:

Monday, February 11, 2013

  Actual Average Record
Temperature  
Mean Temperature 29 °F -  
Max Temperature 46 °F 36 °F 59 °F (2009)
Min Temperature 12 °F 9 °F -14 °F (1962)
Degree Days  
Heating Degree Days 36    
Moisture  
Dew Point 30 °F    
Average Humidity 86    
Maximum Humidity 100    
Minimum Humidity 62    
Precipitation  
Precipitation 0.30 in - - ()
Sea Level Pressure  
Sea Level Pressure 29.90 in    
Wind  
Wind Speed 1 mph (SSW)    
Max Wind Speed 7 mph    
Max Gust Speed -    
Visibility 3 miles    
Events Fog , Rain    
Averages and records for this station are not official NWS values.
T = Trace of Precipitation, MM = Missing Value Source: NWS Daily Summary

Daily Weather History Graph

Daily Weather History Graph

Search for Another Location

Airport:

Trip Planner

Search our weather history database for the weather conditions in past years. The results will help you decide how hot, cold, wet, or windy it might be!

Date:

Astronomy

Feb. 11, 2013 Rise Set
Actual Time 6:49 AM EST 5:17 PM EST
Civil Twilight 6:20 AM EST 5:46 PM EST
Nautical Twilight 5:47 AM EST 6:18 PM EST
Astronomical Twilight 5:15 AM EST 6:51 PM EST
Moon 7:10 AM EST (2/11) 7:13 PM EST (2/11)
Length of Visible Light 11h 25m
Length of Day
10h 28m
Waxing Crescent, 3% of the Moon is Illuminated
Feb 11
Waxing Crescent
Feb 17
First Quarter
Feb 25
Full
Mar 4
Last Quarter
Mar 11
New

Hourly Weather History & Observations

Time (EST) Temp. Windchill Dew Point Humidity Pressure Visibility Wind Dir Wind Speed Gust Speed Precip Events Conditions
12:52 AM 12.0 °F - 5.0 °F 73% 30.36 in 10.0 mi Calm Calm - N/A   Clear
1:52 AM 14.0 °F - 6.1 °F 71% 30.34 in 8.0 mi Calm Calm - N/A   Clear
2:52 AM 15.1 °F - 6.1 °F 68% 30.32 in 9.0 mi Calm Calm - N/A   Clear
3:52 AM 17.1 °F - 6.1 °F 62% 30.27 in 9.0 mi Calm Calm - N/A   Clear
4:52 AM 18.0 °F - 7.0 °F 62% 30.27 in 9.0 mi Calm Calm - N/A   Scattered Clouds
5:52 AM 19.0 °F - 8.1 °F 62% 30.25 in 9.0 mi Calm Calm - N/A   Overcast
6:52 AM 19.9 °F - 9.0 °F 62% 30.22 in 7.0 mi Calm Calm - 0.00 in   Overcast
7:52 AM 21.9 °F - 12.9 °F 68% 30.17 in 4.0 mi Calm Calm - 0.01 in   Overcast
8:52 AM 24.1 °F - 19.0 °F 81% 30.12 in 6.0 mi Calm Calm - 0.01 in   Overcast
9:03 AM 24.8 °F - 19.4 °F 80% 30.09 in 5.0 mi Calm Calm - 0.00 in   Overcast
9:33 AM 28.4 °F - 24.8 °F 86% 30.07 in 4.0 mi Calm Calm - 0.01 in   Overcast
9:40 AM 28.4 °F - 24.8 °F 86% 30.06 in 3.0 mi Calm Calm - 0.01 in Rain Light Freezing Rain
9:44 AM 28.4 °F - 24.8 °F 86% 30.06 in 2.5 mi Calm Calm - 0.01 in Rain Light Freezing Rain
9:52 AM 28.9 °F - 26.1 °F 89% 30.06 in 1.5 mi Calm Calm - 0.03 in Rain Light Freezing Rain
10:10 AM 32.0 °F 28.7 °F 28.4 °F 87% 30.03 in 2.0 mi WNW 3.5 mph - 0.00 in Rain Light Freezing Rain
10:18 AM 33.8 °F - 30.2 °F 87% 30.02 in 1.8 mi Calm Calm - 0.01 in Rain Light Freezing Rain
10:37 AM 33.8 °F - 30.2 °F 87% 30.01 in 1.2 mi Calm Calm - 0.02 in   Overcast
10:52 AM 33.1 °F - 30.9 °F 92% 30.01 in 0.8 mi Calm Calm - 0.03 in Rain Light Rain
11:52 AM 34.0 °F - 32.0 °F 92% 29.96 in 0.5 mi Calm Calm - 0.12 in Fog , Rain Rain
12:19 PM 35.6 °F - 33.8 °F 93% 29.92 in 0.5 mi Calm Calm - 0.04 in Fog , Rain Light Rain
12:47 PM 35.6 °F - 33.8 °F 93% 29.89 in 0.2 mi Calm Calm - 0.07 in Fog , Rain Light Rain
12:52 PM 36.0 °F - 34.0 °F 93% 29.90 in 0.2 mi Calm Calm - 0.07 in Fog , Rain Light Rain
1:52 PM 39.9 °F - 37.9 °F 93% 29.82 in 0.5 mi Calm Calm - 0.03 in Fog , Rain Light Rain
2:10 PM 44.6 °F - 41.0 °F 87% 29.80 in 2.5 mi Calm Calm - 0.00 in   Overcast
2:28 PM 46.4 °F 44.3 °F 42.8 °F 87% 29.79 in 10.0 mi Variable 4.6 mph - 0.00 in   Overcast
2:52 PM 46.0 °F 44.8 °F 43.0 °F 89% 29.81 in 10.0 mi SW 3.5 mph - 0.00 in   Overcast
3:31 PM 44.6 °F 41.4 °F 42.8 °F 93% 29.76 in 1.8 mi South 5.8 mph - N/A   Overcast
3:52 PM 45.0 °F 42.6 °F 43.0 °F 93% 29.77 in 0.8 mi South 4.6 mph - N/A   Overcast
3:58 PM 44.6 °F 43.1 °F 42.8 °F 93% 29.75 in 2.0 mi South 3.5 mph - N/A   Overcast
4:27 PM 44.6 °F 43.1 °F 42.8 °F 93% 29.74 in 0.8 mi South 3.5 mph - N/A   Overcast
4:52 PM 45.0 °F 41.8 °F 43.0 °F 93% 29.73 in 0.5 mi South 5.8 mph - N/A Fog Fog
5:52 PM 39.9 °F - 37.9 °F 93% 29.73 in 0.2 mi Calm Calm - N/A Fog Fog
6:13 PM 39.2 °F - 39.2 °F 100% 29.72 in 0.5 mi Calm Calm - N/A Fog Fog
6:24 PM 37.4 °F - 35.6 °F 93% 29.71 in 0.2 mi Calm Calm - N/A Fog Fog
6:36 PM 39.2 °F - 37.4 °F 93% 29.70 in 0.5 mi Calm Calm - N/A Fog Fog
6:52 PM 39.9 °F - 37.0 °F 89% 29.70 in 0.5 mi Calm Calm - N/A Fog Fog
7:52 PM 37.9 °F - 36.0 °F 93% 29.68 in 0.2 mi Calm Calm - N/A Fog Fog
8:07 PM 35.6 °F 32.8 °F 33.8 °F 93% 29.67 in 0.5 mi ENE 3.5 mph - N/A Fog Fog
8:52 PM 36.0 °F - 34.0 °F 93% 29.67 in 0.5 mi Calm Calm - N/A Fog Fog
9:16 PM 35.6 °F - 33.8 °F 93% 29.65 in 0.5 mi Calm Calm - N/A Fog Fog
9:26 PM 35.6 °F - 33.8 °F 93% 29.66 in 0.5 mi Calm Calm - N/A Fog Fog
9:52 PM 39.0 °F 35.7 °F 36.0 °F 89% 29.66 in 0.5 mi Variable 4.6 mph - N/A Fog Fog
10:10 PM 42.8 °F 41.1 °F 39.2 °F 87% 29.65 in 2.0 mi SW 3.5 mph - N/A   Overcast
10:18 PM 41.0 °F 38.0 °F 39.2 °F 93% 29.65 in 4.0 mi WSW 4.6 mph - N/A   Overcast
10:52 PM 42.1 °F - 39.0 °F 89% 29.66 in 10.0 mi Calm Calm - N/A   Overcast
11:52 PM 43.0 °F 38.8 °F 39.0 °F 86% 29.67 in 10.0 mi NW 6.9 mph - N/A   Overcast